Flag for Canada Weather past 2 weeks in Sarnia, Ontario, Canada

Now
68 °F

Fog.


Feels Like: 68 °F
Forecast: 63 / 78 °F
Wind: 2 mph from South

Location: Sarnia Airport

Current Time: Aug 30, 2015 at 12:19:43 AM

Latest Report: Aug 29, 2015 at 11:00 PM


Visibility: 6 mi

Pressure: 30.08 "Hg

Humidity: 94%

Dew point: 66 °F

Location of SarniaLocation

Historic Weather in Sarnia — Graph

°F

Sarnia temperature yesterday

Maximum temperature yesterday: 73 °F (at 1:00 PM)
Minimum temperature yesterday: 61 °F (at 12:00 AM)
Average temperature yesterday: 66 °F

Past Weeks' High & Low Weather Summary

 TemperatureHumidityPressure
High86 °F (Aug 17, 2:00 PM)100% (Aug 17, 5:00 AM)30.23 "Hg (Aug 17, 5:00 AM)
Low48 °F (Aug 28, 7:00 AM)41% (Aug 24, 3:00 PM)29.64 "Hg (Aug 20, 4:00 AM)
Average68 °F76%30.01 "Hg
* Reported Aug 14 11:00 PM — Aug 29 11:00 PM, Sarnia, Weather by CustomWeather, © 2015

Note: Actual official high and low records may vary slightly from our data, if they occured in-between our weather recording intervals... More about our weather records

Advertising

Sarnia weather history for previous 24 hours

 ConditionsComfort  
Time TempWeatherWind HumidityBarometerVisibility
11:00 PM
Sat, Aug 29
68 °FFog.2 mph94%30.08 "Hg6 mi
10:00 PM66 °FMostly cloudy.2 mph94%30.08 "Hg7 mi
9:00 PM68 °FOvercast.2 mph94%30.07 "Hg9 mi
8:00 PM68 °FMostly cloudy.2 mph94%30.06 "Hg9 mi
7:00 PM70 °FMostly cloudy.3 mph83%30.06 "Hg9 mi
6:00 PM72 °FOvercast.3 mph83%30.06 "Hg9 mi
5:00 PM70 °FMostly cloudy.5 mph88%30.07 "Hg9 mi
4:00 PM73 °FMore clouds than sun.2 mph74%30.09 "Hg9 mi
3:00 PM72 °FLight rain. Overcast.2 mph78%30.11 "Hg9 mi
2:00 PM73 °FOvercast.7 mph69%30.10 "Hg9 mi
1:00 PM73 °FPartly sunny.7 mph69%30.12 "Hg9 mi
12:00 PM72 °FPartly sunny.No wind78%30.15 "Hg9 mi
11:00 AM70 °FMostly cloudy.5 mph83%30.15 "Hg9 mi
10:00 AM66 °FMostly cloudy.2 mph88%30.15 "Hg8 mi
9:00 AM64 °FFog.2 mph94%30.16 "Hg5 mi
8:00 AM61 °FFog.2 mph100%30.15 "Hg4 mi
7:00 AM61 °FFog.3 mph94%30.14 "Hg4 mi
6:00 AM63 °FLight rain. Mostly cloudy.No wind88%30.14 "Hg8 mi
5:00 AM61 °FMostly cloudy.3 mph94%30.13 "Hg9 mi
4:00 AM61 °FPassing clouds.3 mph88%30.13 "Hg9 mi
3:00 AM61 °FOvercast.3 mph88%30.14 "Hg9 mi
2:00 AM61 °FOvercast.5 mph94%30.15 "Hg9 mi
1:02 AM61 °FOvercast.6 mph94%30.14 "Hg8 mi
12:00 AM61 °FPartly cloudy.6 mph94%30.14 "Hg9 mi
Weather by CustomWeather, © 2015

See weather overviewHow to use our weather pages